Weather Roundup
Issued by NWS

Home | Current Version | Previous Version | Text Only | Print | Product List | Glossary On
Versions: 1 2 3 4 5 6 7 8 9 10 11 12 13 14 15 16 17 18 19 20 21 22 23 24 25 26 27 28 29 30 31 32 33 34 35 36 37 38 39 40 41 42 43 44 45 46 47 48 49 50
000
NZUS93 KARX 241510
HRRWXR

CURRENT HOURLY OBSERVATIONS ACROSS
MUCH OF THE UPPER MISSISSIPPI VALLEY
NATIONAL WEATHER SERVICE LA CROSSE WI
1000 AM CDT THU APR 24 2014


...SOUTHEAST MINNESOTA...


CITY           SKY/WX    TMP DP  RH WIND       PRES   REMARKS
ROCHESTER      LGT RAIN  40  36  86 SE24G35   29.73S FOG     WCI  29
ROCHESTER/MAYO CLOUDY    40  37  91 E18G30    29.73F WCI  31
WINONA         RAIN      41  39  93 SE15G22   29.79F
AUSTIN         LGT RAIN  41  39  93 SE23      29.69F
ALBERT LEA     MIX PCPN  41  41 100 SE13G24   29.68F
DODGE CENTER   LGT RAIN  43  41  93 SE23      29.71F
PRESTON        CLOUDY    39  37  93 SE17      29.75F WCI  30
OWATONNA       LGT RAIN  43  37  81 SE18G28   29.70
FARIBAULT      DRIZZLE   45  39  81 SE10      29.73F
$$

...ELSEWHERE IN MINNESOTA...


CITY           SKY/WX    TMP DP  RH WIND       PRES   REMARKS
MINNEAPOLIS    RAIN      40  39  97 E12       29.77F WCI  33
INTNL FALLS    LGT RAIN  39  36  89 SE12      29.87F WCI  32
DULUTH         DRIZZLE   35  33  92 E15       29.88F FOG     WCI  25
RED WING       LGT RAIN  43  39  87 SE17G24   29.77S
REDWOOD FALLS  LGT RAIN  44  42  93 SE7       29.72F FOG
MANKATO        CLOUDY    43  39  87 SE10      29.72S
WORTHINGTON    CLOUDY    43  37  81 CALM      29.70F
FAIRMONT       CLOUDY    43  37  81 SE6       29.69F
$$

...SOUTHWEST WISCONSIN...


CITY           SKY/WX    TMP DP  RH WIND       PRES   REMARKS
LA CROSSE      LGT RAIN  42  39  89 SE13      29.81F
PRAIRIE DU CHI LGT RAIN  45  38  74 E10       29.77F
BOSCOBEL       CLOUDY    43  39  86 N7        29.83F
LONE ROCK      CLOUDY    44  37  76 E24       29.85F
PLATTEVILLE    CLOUDY    47  39  72 E18G25    29.80F
FORT MC COY    RAIN      40  38  95 E14G21    29.86F WCI  32
CAMP DOUGLAS   LGT RAIN  39  39 100 E16G23    29.89F FOG     WCI  30
VIROQUA        CLOUDY    40  39  99 E23       29.80F WCI  29
WIS DELLS      CLOUDY    39  36  87 E14       29.89F WCI  31
$$

...ELSEWHERE IN WISCONSIN...


CITY           SKY/WX    TMP DP  RH WIND       PRES   REMARKS
MILWAUKEE      CLOUDY    46  34  62 SE20G29   29.98F
MADISON        CLOUDY    44  36  73 E12       29.92F
GREEN BAY      LGT RAIN  40  36  86 E7        30.05S FOG
EAU CLAIRE     LGT RAIN  40  38  93 SE21G26   29.80F WCI  30
BLACK RVR FLS  RAIN      40  39  99 E12G18    29.86F WCI  32
MEDFORD        LGT RAIN  35  33  93 SE13G21   29.90F WCI  26
WAUSAU         MIX PCPN  36  33  89 E15       29.95F FOG     WCI  27
WIS RAPIDS     LGT RAIN  40  37  89 SE10      29.95F WCI  33
MARSHFIELD     LGT RAIN  38  35  89 SE18      29.91F FOG     WCI  28
RICE LAKE      LGT RAIN  38  37  93 E12G18    29.85F WCI  31
$$

...NORTHEAST IOWA...


CITY           SKY/WX    TMP DP  RH WIND       PRES   REMARKS
WATERLOO       RAIN      46  42  86 SE9       29.71R FOG
DUBUQUE        CLOUDY    49  37  63 SE21G33   29.77F
DECORAH        LGT RAIN  41  41 100 E14G24    29.74F
MASON CITY     CLOUDY    43  40  89 SE18      29.68F
CHARLES CITY   MIX PCPN  43  39  87 SE16      29.72S
OELWEIN        CLOUDY   N/A N/A N/A SE20      29.72S
$$

...ELSEWHERE IN IOWA...


CITY           SKY/WX    TMP DP  RH WIND       PRES   REMARKS
DES MOINES     LGT RAIN  53  50  89 S14       29.64F FOG
IOWA CITY      CLOUDY    56  40  55 SE16G24   29.74F
FORT DODGE     CLOUDY    48  43  81 S6        29.65S
MARSHALLTOWN   RAIN      46  44  93 S14       29.69R FOG
CEDAR RAPIDS   LGT RAIN  52  39  61 S17G23    29.71F
$$

...NORTHERN ILLINOIS...


CITY           SKY/WX    TMP DP  RH WIND       PRES   REMARKS
CHICAGO-OHARE  CLOUDY    54  35  48 SE22      29.94F
DUPAGE         CLOUDY    55  36  48 SE16G23   29.94F
CHICAGO-MIDWAY CLOUDY    54  37  52 SE21      29.96F
MOLINE         PTSUNNY   58  38  47 SE21G28   29.77F
ROCKFORD       CLOUDY    53  37  54 SE17G31   29.91F
STERLING       CLOUDY    55  37  50 SE15G23   29.85F
PEORIA         PTSUNNY   62  36  37 S20       29.86F
$$

NOTE: "FAIR" INDICATES FEW OR NO CLOUDS BELOW 12,000 FEET WITH NO
SIGNIFICANT WEATHER AND/OR OBSTRUCTIONS TO VISIBILITY. WIND
SPEEDS ARE IN MILES-PER-HOUR.



USA.gov is the U.S. government's official web portal to all federal, state and local government web resources and services.